| time (UTC) | temp C | wind direction | speed KPH | gust KPH | rain 1hr cm | rain 24hr cm | rain mn cm | humidity % | barometer mb |
| 20260905120036 | 17 | 281 | 0.0 | 0.0 | 0.00 | 0.00 | 0.00 | 53 | 1003.0 |
| 20260905114541 | 17 | 281 | 0.0 | 0.0 | 0.00 | 0.00 | 0.00 | 53 | 1003.0 |
| 20260905113040 | 18 | 281 | 0.0 | 0.0 | 0.00 | 0.00 | 0.00 | 50 | 1003.1 |
| 20260905111545 | 17 | 294 | 0.0 | 0.0 | 0.00 | 0.00 | 0.00 | 51 | 1003.1 |
| 20260905110033 | 17 | 9 | 0.0 | 1.6 | 0.00 | 0.00 | 0.00 | 52 | 1003.0 |
| 20260905104531 | 17 | 17 | 0.0 | 0.0 | 0.00 | 0.00 | 0.00 | 52 | 1003.1 |
| 20260905103031 | 18 | 17 | 0.0 | 0.0 | 0.00 | 0.00 | 0.00 | 50 | 1002.8 |
| 20260905101530 | 18 | 360 | 0.0 | 0.0 | 0.00 | 0.00 | 0.00 | 48 | 1002.8 |
| 20260905100021 | 19 | 256 | 0.0 | 0.0 | 0.00 | 0.00 | 0.00 | 45 | 1002.6 |
| 20260905094520 | 20 | 256 | 0.0 | 0.0 | 0.00 | 0.00 | 0.00 | 47 | 1002.4 |
| 20260905093018 | 19 | 255 | 0.0 | 0.0 | 0.00 | 0.00 | 0.00 | 44 | 1002.3 |
| 20260905091514 | 20 | 255 | 0.0 | 0.0 | 0.00 | 0.00 | 0.00 | 42 | 1002.2 |
| 20260905090013 | 20 | 255 | 0.0 | 0.0 | 0.00 | 0.00 | 0.00 | 41 | 1002.1 |
| 20260905084536 | 20 | 259 | 0.0 | 0.0 | 0.00 | 0.00 | 0.00 | 40 | 1002.1 |
| 20260905083019 | 20 | 261 | 0.0 | 0.0 | 0.00 | 0.00 | 0.00 | 40 | 1002.1 |
| 20260905081512 | 20 | 261 | 0.0 | 0.0 | 0.00 | 0.00 | 0.00 | 40 | 1002.1 |
| 20260905080012 | 20 | 264 | 0.0 | 0.0 | 0.00 | 0.00 | 0.00 | 41 | 1002.2 |
| 20260905074511 | 20 | 265 | 0.0 | 0.0 | 0.00 | 0.00 | 0.00 | 42 | 1002.1 |
| 20260905073016 | 20 | 264 | 0.0 | 0.0 | 0.00 | 0.00 | 0.00 | 43 | 1002.2 |
| 20260905071507 | 21 | 264 | 0.0 | 0.0 | 0.00 | 0.00 | 0.00 | 42 | 1002.1 |
| 20260905070007 | 21 | 265 | 0.0 | 0.0 | 0.00 | 0.00 | 0.00 | 41 | 1001.9 |
| 20260905064506 | 21 | 278 | 0.0 | 0.0 | 0.00 | 0.00 | 0.00 | 41 | 1002.0 |
| 20260905063006 | 21 | 278 | 0.0 | 0.0 | 0.00 | 0.00 | 0.00 | 41 | 1002.0 |
| 20260905061502 | 21 | 278 | 0.0 | 0.0 | 0.00 | 0.00 | 0.00 | 41 | 1002.0 |
| 20260905060059 | 22 | 277 | 0.0 | 0.0 | 0.00 | 0.00 | 0.00 | 40 | 1001.9 |
| 20260905054603 | 22 | 278 | 0.0 | 0.0 | 0.00 | 0.00 | 0.00 | 39 | 1001.8 |
| 20260905053111 | 22 | 277 | 0.0 | 0.0 | 0.00 | 0.00 | 0.00 | 38 | 1001.9 |
| 20260905051557 | 23 | 278 | 0.0 | 0.0 | 0.00 | 0.00 | 0.00 | 36 | 1001.9 |
| 20260905050056 | 23 | 277 | 0.0 | 0.0 | 0.00 | 0.00 | 0.00 | 35 | 1001.8 |
| 20260905044556 | 24 | 281 | 0.0 | 0.0 | 0.00 | 0.00 | 0.00 | 35 | 1001.8 |
| 20260905043057 | 24 | 280 | 0.0 | 1.6 | 0.00 | 0.00 | 0.00 | 36 | 1001.9 |
| 20260905041555 | 24 | 281 | 0.0 | 0.0 | 0.00 | 0.00 | 0.00 | 36 | 1001.9 |
| 20260905040055 | 25 | 281 | 0.0 | 0.0 | 0.00 | 0.00 | 0.00 | 35 | 1002.0 |
| 20260905034554 | 25 | 281 | 0.0 | 1.6 | 0.00 | 0.00 | 0.00 | 35 | 1002.1 |
| 20260905033057 | 26 | 281 | 0.0 | 0.0 | 0.00 | 0.00 | 0.00 | 33 | 1002.2 |
| 20260905031556 | 26 | 279 | 0.0 | 3.2 | 0.00 | 0.00 | 0.00 | 32 | 1002.0 |
| 20260905030059 | 26 | 360 | 0.0 | 0.0 | 0.00 | 0.00 | 0.00 | 31 | 1001.9 |
| 20260905024625 | 26 | 360 | 0.0 | 0.0 | 0.00 | 0.00 | 0.00 | 31 | 1001.6 |
| 20260905023056 | 27 | 74 | 0.0 | 0.0 | 0.00 | 0.00 | 0.00 | 30 | 1001.4 |
| 20260905021550 | 27 | 73 | 0.0 | 0.0 | 0.00 | 0.00 | 0.00 | 30 | 1001.2 |
| 20260905020052 | 27 | 360 | 0.0 | 0.0 | 0.00 | 0.00 | 0.00 | 30 | 1001.2 |
| 20260905014548 | 27 | 74 | 0.0 | 0.0 | 0.00 | 0.00 | 0.00 | 29 | 1000.9 |
| 20260905013052 | 27 | 360 | 0.0 | 0.0 | 0.00 | 0.00 | 0.00 | 29 | 1000.8 |
| 20260905011556 | 28 | 360 | 0.0 | 0.0 | 0.00 | 0.00 | 0.00 | 28 | 1000.7 |
| 20260905010047 | 28 | 360 | 0.0 | 3.2 | 0.00 | 0.00 | 0.00 | 27 | 1000.7 |
| 20260905004557 | 29 | 360 | 0.0 | 0.0 | 0.00 | 0.00 | 0.00 | 27 | 1000.7 |
| 20260905003047 | 29 | 360 | 0.0 | 1.6 | 0.00 | 0.00 | 0.00 | 27 | 1000.6 |
| 20260905001546 | 30 | 360 | 0.0 | 4.8 | 0.00 | 0.00 | 0.00 | 26 | 1000.5 |
| 20260905000044 | 30 | 360 | 0.0 | 6.4 | 0.00 | 0.00 | 0.00 | 24 | 1000.4 |
| 20260904234548 | 30 | 360 | 1.6 | 6.4 | 0.00 | 0.00 | 0.00 | 25 | 1000.4 |
| 20260904233055 | 31 | 360 | 3.2 | 19.3 | 0.00 | 0.00 | 0.00 | 22 | 1000.4 |
| 20260904231541 | 31 | 76 | 1.6 | 12.9 | 0.00 | 0.00 | 0.00 | 19 | 1000.3 |
| 20260904230039 | 33 | 83 | 0.0 | 3.2 | 0.00 | 0.00 | 0.00 | 22 | 1000.3 |
| 20260904224545 | 31 | 360 | 0.0 | 6.4 | 0.00 | 0.00 | 0.00 | 19 | 1000.4 |
| 20260904223042 | 31 | 360 | 0.0 | 9.7 | 0.00 | 0.00 | 0.00 | 23 | 1000.3 |
| 20260904221536 | 31 | 360 | 0.0 | 6.4 | 0.00 | 0.00 | 0.00 | 18 | 1000.4 |
| 20260904220036 | 31 | 360 | 0.0 | 6.4 | 0.00 | 0.00 | 0.00 | 19 | 1000.5 |
| 20260904214541 | 32 | 138 | 0.0 | 6.4 | 0.00 | 0.00 | 0.00 | 19 | 1000.6 |
| 20260904213033 | 31 | 360 | 1.6 | 17.7 | 0.00 | 0.00 | 0.00 | 22 | 1000.8 |
| 20260904211531 | 31 | 139 | 0.0 | 9.7 | 0.00 | 0.00 | 0.00 | 21 | 1000.9 |
| 20260904210030 | 31 | 189 | 3.2 | 9.7 | 0.00 | 0.00 | 0.00 | 24 | 1001.1 |
| 20260904204531 | 31 | 360 | 1.6 | 8.0 | 0.00 | 0.00 | 0.00 | 24 | 1001.4 |
| 20260904203032 | 31 | 360 | 1.6 | 8.0 | 0.00 | 0.00 | 0.00 | 22 | 1001.6 |
| 20260904201526 | 30 | 96 | 1.6 | 16.1 | 0.00 | 0.00 | 0.00 | 22 | 1001.8 |
| 20260904200030 | 30 | 360 | 1.6 | 6.4 | 0.00 | 0.00 | 0.00 | 23 | 1001.9 |
| 20260904194525 | 30 | 360 | 1.6 | 14.5 | 0.00 | 0.00 | 0.00 | 23 | 1001.9 |
| 20260904193036 | 30 | 360 | 3.2 | 17.7 | 0.00 | 0.00 | 0.00 | 22 | 1002.1 |
| 20260904191524 | 30 | 360 | 1.6 | 16.1 | 0.00 | 0.00 | 0.00 | 23 | 1002.3 |
| 20260904190023 | 30 | 360 | 1.6 | 9.7 | 0.00 | 0.00 | 0.00 | 23 | 1002.3 |
| 20260904184523 | 30 | 126 | 0.0 | 9.7 | 0.00 | 0.00 | 0.00 | 22 | 1002.4 |
| 20260904183020 | 30 | 360 | 0.0 | 9.7 | 0.00 | 0.00 | 0.00 | 26 | 1002.6 |
| 20260904181516 | 29 | 360 | 0.0 | 9.7 | 0.00 | 0.00 | 0.00 | 26 | 1002.7 |
| 20260904180013 | 29 | 360 | 1.6 | 17.7 | 0.00 | 0.00 | 0.00 | 24 | 1002.8 |
| 20260904174511 | 28 | 360 | 1.6 | 8.0 | 0.00 | 0.00 | 0.00 | 26 | 1003.0 |
| 20260904173008 | 29 | 360 | 0.0 | 6.4 | 0.00 | 0.00 | 0.00 | 25 | 1003.0 |
| 20260904171508 | 28 | 360 | 3.2 | 14.5 | 0.00 | 0.00 | 0.00 | 29 | 1003.1 |
| 20260904170101 | 28 | 360 | 0.0 | 4.8 | 0.00 | 0.00 | 0.00 | 28 | 1003.2 |
| 20260904164656 | 29 | 360 | 0.0 | 4.8 | 0.00 | 0.00 | 0.00 | 25 | 1003.3 |
| 20260904163100 | 27 | 86 | 0.0 | 6.4 | 0.00 | 0.00 | 0.00 | 28 | 1003.4 |
| 20260904161548 | 27 | 360 | 0.0 | 3.2 | 0.00 | 0.00 | 0.00 | 31 | 1003.4 |
| 20260904160044 | 27 | 360 | 1.6 | 9.7 | 0.00 | 0.00 | 0.00 | 28 | 1003.4 |
| 20260904154540 | 27 | 62 | 0.0 | 0.0 | 0.00 | 0.00 | 0.00 | 29 | 1003.5 |
| 20260904153046 | 25 | 58 | 0.0 | 0.0 | 0.00 | 0.00 | 0.00 | 33 | 1003.5 |
| 20260904151530 | 25 | 89 | 0.0 | 0.0 | 0.00 | 0.00 | 0.00 | 34 | 1003.4 |
| 20260904150026 | 24 | 360 | 0.0 | 0.0 | 0.00 | 0.00 | 0.00 | 36 | 1003.4 |
| 20260904144522 | 23 | 360 | 0.0 | 0.0 | 0.00 | 0.00 | 0.00 | 34 | 1003.3 |
| 20260904143018 | 23 | 107 | 0.0 | 0.0 | 0.00 | 0.00 | 0.00 | 39 | 1003.3 |
| 20260904141515 | 22 | 107 | 0.0 | 0.0 | 0.00 | 0.00 | 0.00 | 41 | 1003.4 |
| 20260904140008 | 22 | 191 | 0.0 | 0.0 | 0.00 | 0.00 | 0.00 | 47 | 1003.4 |
| 20260904134504 | 18 | 191 | 0.0 | 0.0 | 0.00 | 0.00 | 0.00 | 49 | 1003.3 |
| 20260904133101 | 17 | 168 | 0.0 | 0.0 | 0.00 | 0.00 | 0.00 | 48 | 1003.1 |
| 20260904131631 | 16 | 167 | 0.0 | 0.0 | 0.00 | 0.00 | 0.00 | 52 | 1002.9 |
| 20260904130051 | 16 | 167 | 0.0 | 0.0 | 0.00 | 0.00 | 0.00 | 47 | 1002.9 |
| 20260904124551 | 16 | 167 | 0.0 | 0.0 | 0.00 | 0.00 | 0.00 | 49 | 1002.8 |
| 20260904123103 | 15 | 155 | 0.0 | 3.2 | 0.00 | 0.00 | 0.00 | 51 | 1002.7 |
| 20260904121545 | 15 | 182 | 0.0 | 0.0 | 0.00 | 0.00 | 0.00 | 51 | 1002.6 |